Location: Melbourne
(37.8170°S, 144.9670°E)
Time: 04:46:56
(UTC+10:00)

Transit 2A - All Passes

Search period start: 03 September 2014 00:00
Search period end: 13 September 2014 00:00
Orbit: 601 x 961 km, 66.7° (Epoch: 02 September)

Date Brightness Start Highest point End Pass type
(mag) Time Alt. Az. Time Alt. Az. Time Alt. Az.
03 Sep - 01:57:51 10° NE 02:01:03 15° ENE 02:04:18 10° ESE visible
03 Sep - 03:37:14 10° NNW 03:43:30 85° WSW 03:49:58 10° SSE visible
03 Sep - 05:23:38 10° W 05:27:45 18° SW 05:31:53 10° S visible
03 Sep - 10:47:14 10° SSE 10:48:23 11° SE 10:49:31 10° SE daylight
03 Sep - 12:27:26 10° SSW 12:33:09 55° ESE 12:38:16 10° NE daylight
03 Sep - 14:12:05 10° WSW 14:15:46 18° WNW 14:19:13 10° NW daylight
04 Sep - 03:03:50 10° NNW 03:10:01 70° ENE 03:16:24 10° SSE visible
04 Sep - 04:48:59 10° W 04:53:55 23° SW 04:58:53 10° S visible
04 Sep - 11:54:05 10° SSW 11:59:31 39° SE 12:04:25 10° ENE daylight
04 Sep - 13:37:52 10° SW 13:42:32 27° WNW 13:46:48 10° NNW daylight
05 Sep - 02:30:38 10° N 02:36:35 50° ENE 02:42:45 10° SE visible
05 Sep - 04:14:39 10° WNW 04:20:09 30° SW 04:25:43 10° S visible
05 Sep - 11:20:49 10° S 11:25:49 28° SE 11:30:22 10° ENE daylight
05 Sep - 13:03:57 10° SW 13:09:13 40° WNW 13:13:58 10° N daylight
06 Sep - 01:57:40 10° N 02:03:13 35° ENE 02:08:56 10° SE visible
06 Sep - 03:40:33 10° WNW 03:46:27 41° SW 03:52:27 10° SSE visible
06 Sep - 10:47:42 10° S 10:52:02 21° SE 10:56:03 10° E daylight
06 Sep - 12:30:13 10° SW 12:35:51 61° WNW 12:40:51 10° NNE daylight
07 Sep - 01:25:01 10° NNE 01:29:55 25° ENE 01:34:56 10° SE visible
07 Sep - 03:06:39 10° NW 03:12:49 55° WSW 03:19:06 10° SSE visible
07 Sep - 04:55:14 10° WSW 04:57:33 12° SW 04:59:51 10° SSW visible
07 Sep - 10:14:46 10° S 10:18:11 16° SE 10:21:24 10° ESE daylight
07 Sep - 11:56:38 10° SSW 12:02:24 89° WNW 12:07:30 10° NNE daylight
08 Sep - 00:52:49 10° NE 00:56:39 17° ENE 01:00:33 10° ESE visible
08 Sep - 02:32:57 10° NNW 02:39:14 76° WSW 02:45:40 10° SSE visible
08 Sep - 04:19:53 10° WSW 04:23:37 16° SW 04:27:21 10° S visible
08 Sep - 09:42:18 10° SSE 09:44:15 12° SE 09:46:09 10° ESE daylight
08 Sep - 11:23:09 10° SSW 11:28:52 64° ESE 11:33:57 10° NE daylight
08 Sep - 13:08:17 10° WSW 13:11:20 15° WNW 13:14:13 10° NW daylight
09 Sep - 00:21:48 10° ENE 00:23:27 11° E 00:25:06 10° E night (unlit)
09 Sep - 01:59:28 10° NNW 02:05:44 79° ENE 02:12:09 10° SSE visible
09 Sep - 03:45:06 10° W 03:49:45 21° SW 03:54:25 10° S visible
09 Sep - 10:49:45 10° SSW 10:55:15 44° SE 11:00:11 10° NE daylight
09 Sep - 12:33:50 10° SW 12:38:06 23° WNW 12:42:02 10° NNW daylight
10 Sep - 01:26:10 10° N 01:32:16 57° ENE 01:38:32 10° SE visible
10 Sep - 03:10:39 10° WNW 03:15:57 27° SW 03:21:18 10° S visible
10 Sep - 10:16:28 10° S 10:21:34 31° SE 10:26:12 10° ENE daylight
10 Sep - 11:59:49 10° SW 12:04:49 34° WNW 12:09:21 10° N daylight
11 Sep - 00:53:07 10° N 00:58:53 40° ENE 01:04:47 10° SE visible
11 Sep - 02:36:27 10° WNW 02:42:14 36° SW 02:48:05 10° SSE visible
11 Sep - 09:43:17 10° S 09:47:49 23° SE 09:51:59 10° E daylight
11 Sep - 11:26:01 10° SW 11:31:28 52° WNW 11:36:20 10° N daylight
12 Sep - 00:20:20 10° NNE 00:25:32 28° ENE 00:30:52 10° SE visible
12 Sep - 02:02:28 10° NW 02:08:34 49° WSW 02:14:45 10° SSE visible
12 Sep - 03:52:06 10° SW 03:53:25 11° SW 03:54:45 10° SSW visible
12 Sep - 09:10:17 10° S 09:13:59 17° SE 09:17:28 10° E daylight
12 Sep - 10:52:23 10° SSW 10:58:03 77° WNW 11:03:04 10° NNE daylight
12 Sep - 23:47:55 10° NNE 23:52:15 20° ENE 23:56:39 10° ESE night (unlit)
